DW5321 Paradera AW current weather conditions

sailwx.info

Wind from 071 at 7 knots gusting 15

Air temperature 26.1° C
Dewpoint 22.0° C

Last reported at 2017-Feb-19 22:38 UTC.
Time now 2017-Feb-19 23:29 UTC

Location: N 12°33' W 070°00'.
View on Google Maps.

See reports from other nearby stations

  
Tides and Currents Weather Stations Pressure Air Temp Water Temp Dewpoint Dewpoint Depression Visibility Wind Speed Wind Dir Waves Ship Positions
date/time (UTC)wind fromknots sea level pressurealtimeterstation pressurevisibilityair tempwater tempwave heightnotes
2017-Feb-19 22:38 071 7 gusting 15 26.1
2017-Feb-19 22:23 054 8 gusting 13 26.7
2017-Feb-19 22:08 103 4 gusting 13 26.7
2017-Feb-19 21:52 081 8 gusting 14 27.2
2017-Feb-19 21:38 090 7 gusting 16 27.2
2017-Feb-19 21:22 073 6 gusting 13 27.2
2017-Feb-19 21:07 098 9 gusting 14 27.2
2017-Feb-19 20:52 032 9 gusting 13 27.8
2017-Feb-19 20:37 061 9 gusting 16 27.8
2017-Feb-19 20:22 108 6 gusting 19 28.3
2017-Feb-19 20:07 097 9 gusting 16 27.8
2017-Feb-19 19:52 042 7 gusting 15 28.3
2017-Feb-19 19:37 059 6 gusting 16 28.3
2017-Feb-19 19:22 100 8 gusting 15 28.3
2017-Feb-19 19:07 071 10 gusting 16 28.9
2017-Feb-19 18:50 075 10 gusting 17 28.9
2017-Feb-19 18:35 096 9 gusting 15 28.3
2017-Feb-19 18:20 124 6 gusting 13 28.3
2017-Feb-19 18:05 115 10 gusting 18 28.9
2017-Feb-19 17:50 098 7 gusting 15 28.9
2017-Feb-19 17:34 082 7 gusting 18 28.9
2017-Feb-19 17:19 089 6 gusting 19 28.3
2017-Feb-19 17:04 079 10 gusting 17 28.3
2017-Feb-19 16:49 058 7 gusting 19 28.3
2017-Feb-19 16:34 117 8 gusting 16 28.9
2017-Feb-19 16:19 056 7 gusting 14 28.3
2017-Feb-19 16:03 111 10 gusting 17 28.3
2017-Feb-19 15:48 098 6 gusting 13 28.3
2017-Feb-19 15:33 097 9 gusting 18 28.3
2017-Feb-19 15:18 094 7 gusting 17 27.8
2017-Feb-19 15:03 133 11 gusting 17 27.8
2017-Feb-19 14:48 098 10 gusting 13 27.8
2017-Feb-19 14:33 057 6 gusting 13 27.8
2017-Feb-19 14:18 094 9 gusting 14 27.8
2017-Feb-19 14:03 107 6 gusting 12 27.2
2017-Feb-19 13:48 089 8 gusting 13 27.2
2017-Feb-19 13:33 117 7 gusting 13 26.7
2017-Feb-19 13:18 099 6 gusting 12 26.7
2017-Feb-19 13:03 091 6 gusting 10 26.7
2017-Feb-19 12:48 125 6 gusting 13 26.1
2017-Feb-19 12:33 090 8 gusting 15 26.1
2017-Feb-19 12:18 111 8 gusting 12 25.6
2017-Feb-19 12:03 094 5 gusting 10 25.6
2017-Feb-19 11:48 114 4 gusting 11 25.0
2017-Feb-19 11:33 105 6 gusting 12 25.0
2017-Feb-19 11:18 117 6 gusting 8 24.4
2017-Feb-19 11:03 091 6 gusting 9 24.4
2017-Feb-19 10:48 108 6 gusting 11 24.4
2017-Feb-19 10:33 082 5 gusting 11 25.0
2017-Feb-19 10:18 101 6 gusting 10 25.0
2017-Feb-19 10:03 074 5 gusting 12 25.0
2017-Feb-19 09:48 101 5 gusting 10 25.0
2017-Feb-19 09:33 110 6 gusting 9 25.0
2017-Feb-19 09:18 098 5 gusting 10 25.0
2017-Feb-19 09:03 117 6 gusting 12 25.0
2017-Feb-19 08:48 080 6 gusting 9 25.0
2017-Feb-19 08:32 086 6 gusting 11 25.0
2017-Feb-19 08:17 121 3 gusting 9 25.0
2017-Feb-19 08:02 101 2 gusting 6 25.0
2017-Feb-19 07:47 117 4 gusting 9 25.0
2017-Feb-19 07:32 091 4 gusting 7 25.0
2017-Feb-19 07:17 074 5 gusting 8 25.0
2017-Feb-19 07:02 105 5 gusting 9 25.0
2017-Feb-19 06:47 092 5 gusting 9 25.0
2017-Feb-19 06:32 084 5 gusting 8 25.0
2017-Feb-19 06:17 113 3 gusting 11 25.0
2017-Feb-19 06:02 092 4 gusting 7 25.0
2017-Feb-19 05:47 096 4 gusting 11 25.0
2017-Feb-19 05:32 081 6 gusting 13 25.0
2017-Feb-19 05:17 091 5 gusting 11 25.0
2017-Feb-19 05:02 090 4 gusting 8 25.0
2017-Feb-19 04:47 094 5 gusting 11 25.0
2017-Feb-19 04:32 134 5 gusting 9 25.0
2017-Feb-19 04:17 112 5 gusting 9 25.0
2017-Feb-19 04:02 113 4 gusting 7 25.0
2017-Feb-19 03:47 093 4 gusting 10 25.0
2017-Feb-19 03:32 080 5 gusting 11 25.0
2017-Feb-19 03:17 064 6 gusting 10 25.0
2017-Feb-19 03:02 085 6 gusting 10 25.0
2017-Feb-19 02:47 094 5 gusting 7 25.0
2017-Feb-19 02:32 117 5 gusting 10 25.0
2017-Feb-19 02:17 096 6 gusting 10 25.6
2017-Feb-19 02:02 129 6 gusting 11 25.6
2017-Feb-19 01:48 101 4 gusting 13 25.6
2017-Feb-19 01:32 090 6 gusting 11 25.6
2017-Feb-19 01:17 071 5 gusting 9 25.6
2017-Feb-19 01:02 071 5 gusting 10 25.6
2017-Feb-19 00:47 079 6 gusting 10 25.6
2017-Feb-19 00:32 135 6 gusting 13 25.6
2017-Feb-19 00:17 078 4 gusting 11 25.6
2017-Feb-19 00:02 108 3 gusting 10 25.6
2017-Feb-18 23:47 103 4 gusting 10 25.6
2017-Feb-18 23:32 071 4 gusting 9 25.6
2017-Feb-18 23:17 061 6 gusting 10 25.6
2017-Feb-18 23:01 114 4 gusting 9 25.6
2017-Feb-18 22:47 043 5 gusting 13 25.6
2017-Feb-18 22:31 084 5 gusting 12 26.1
2017-Feb-18 22:17 071 7 gusting 12 26.1
2017-Feb-18 22:01 056 6 gusting 13 26.7
2017-Feb-18 21:46 099 6 gusting 10 26.7
2017-Feb-18 21:31 077 7 gusting 13 26.7
2017-Feb-18 21:17 075 5 gusting 11 27.2
2017-Feb-18 21:01 075 6 gusting 13 27.2
2017-Feb-18 20:46 083 6 gusting 12 27.8
2017-Feb-18 20:32 077 5 gusting 15 27.2
2017-Feb-18 20:16 059 6 gusting 11 27.8
2017-Feb-18 20:01 090 5 gusting 13 27.8
2017-Feb-18 19:46 133 8 gusting 13 27.8
2017-Feb-18 19:31 025 6 gusting 13 27.8
2017-Feb-18 19:16 066 6 gusting 13 27.8
2017-Feb-18 19:01 014 6 gusting 13 28.3
2017-Feb-18 18:46 100 6 gusting 14 28.3
2017-Feb-18 18:31 081 6 gusting 14 27.8
2017-Feb-18 18:16 089 7 gusting 13 27.8
2017-Feb-18 18:01 051 6 gusting 15 28.3
2017-Feb-18 17:46 089 6 gusting 14 28.3
2017-Feb-18 17:31 078 6 gusting 15 27.8
2017-Feb-18 17:17 093 6 gusting 13 28.3
2017-Feb-18 17:13 074 8 gusting 13 28.3
2017-Feb-18 17:09 079 6 gusting 13 28.3
2017-Feb-18 17:04 079 6 gusting 11 28.3
2017-Feb-18 16:59 064 7 gusting 14 27.8
2017-Feb-18 16:48 084 6 gusting 13 27.8
2017-Feb-18 16:26 091 7 gusting 14 27.8
2017-Feb-18 16:03 098 7 gusting 12 27.8
2017-Feb-18 15:40 047 7 gusting 13 27.8
2017-Feb-18 15:19 070 6 gusting 12 27.2
2017-Feb-18 14:58 082 7 gusting 13 27.2
2017-Feb-18 14:41 066 5 gusting 13 27.2
2017-Feb-18 14:24 123 7 gusting 12 27.2
2017-Feb-18 14:08 110 7 gusting 13 27.2
2017-Feb-18 13:52 101 7 gusting 12 27.2
2017-Feb-18 13:35 093 6 gusting 11 26.7
2017-Feb-18 13:17 091 6 gusting 13 26.7
2017-Feb-18 13:01 108 6 gusting 10 26.7
2017-Feb-18 12:47 117 6 gusting 11 26.1
2017-Feb-18 12:31 111 6 gusting 10 26.1
2017-Feb-18 12:16 112 3 gusting 6 25.6
2017-Feb-18 12:01 108 3 gusting 5 25.0
2017-Feb-18 11:45 101 3 gusting 6 24.4
2017-Feb-18 11:31 124 3 gusting 6 24.4
2017-Feb-18 11:16 093 1 gusting 5 23.9
2017-Feb-18 11:01 101 1 gusting 5 23.9
2017-Feb-18 10:46 114 3 gusting 6 23.9
2017-Feb-18 10:31 108 3 gusting 6 23.9
2017-Feb-18 10:16 103 3 gusting 6 23.9
2017-Feb-18 10:01 110 2 gusting 5 23.9
2017-Feb-18 09:45 117 3 gusting 5 23.9
2017-Feb-18 09:31 108 4 gusting 7 24.4
2017-Feb-18 09:15 073 4 gusting 6 23.9
2017-Feb-18 09:01 103 3 gusting 6 24.4
2017-Feb-18 08:46 082 3 gusting 6 24.4
2017-Feb-18 08:31 092 3 gusting 6 24.4
2017-Feb-18 08:16 088 3 gusting 7 24.4
2017-Feb-18 08:01 086 3 gusting 6 24.4
2017-Feb-18 07:45 080 3 gusting 6 24.4
2017-Feb-18 07:31 058 4 gusting 6 24.4
2017-Feb-18 07:15 100 3 gusting 6 24.4
2017-Feb-18 07:01 113 3 gusting 8 24.4
2017-Feb-18 06:46 098 4 gusting 6 24.4
2017-Feb-18 06:31 089 3 gusting 6 24.4
2017-Feb-18 06:15 098 3 gusting 6 25.0
2017-Feb-18 06:01 073 4 gusting 7 25.0
2017-Feb-18 05:45 096 3 gusting 8 25.0
2017-Feb-18 05:30 064 3 gusting 7 25.0
2017-Feb-18 05:15 113 5 gusting 10 25.0
2017-Feb-18 05:00 091 3 gusting 7 25.0
2017-Feb-18 04:45 084 3 gusting 8 25.0
2017-Feb-18 04:30 089 5 gusting 9 25.0
2017-Feb-18 04:15 088 2 gusting 8 25.0
2017-Feb-18 03:59 120 4 gusting 6 25.0
2017-Feb-18 03:45 090 4 gusting 8 25.0
2017-Feb-18 03:29 091 3 gusting 8 25.0
2017-Feb-18 03:15 070 3 gusting 9 25.6
2017-Feb-18 02:59 071 2 gusting 6 25.6
2017-Feb-18 02:44 088 3 gusting 11 25.6
2017-Feb-18 02:29 081 5 gusting 10 25.6
2017-Feb-18 02:14 066 5 gusting 8 25.6
2017-Feb-18 02:00 082 4 gusting 12 25.6
2017-Feb-18 01:44 072 6 gusting 8 25.6
2017-Feb-18 01:30 073 5 gusting 10 25.6
2017-Feb-18 01:14 091 4 gusting 9 25.6
2017-Feb-18 00:59 060 6 gusting 10 25.6
2017-Feb-18 00:44 070 5 gusting 8 25.6
2017-Feb-18 00:31 094 5 gusting 10 25.6
2017-Feb-18 00:14 086 5 gusting 12 25.6
2017-Feb-17 23:59 108 3 gusting 7 25.6
2017-Feb-17 23:44 068 4 gusting 9 25.6
2017-Feb-17 23:29 079 5 gusting 8 26.1
2017-Feb-17 23:14 076 6 gusting 9 26.1
2017-Feb-17 23:02 064 5 gusting 11 26.1